Location: Les Moreaux
(47.2278°N, 1.4966°E)
Time: 23:04:46
(UTC+00:00)

CZ-4C R/B - Pass Details

Date: 18 May 2026
Orbit: 409 x 496 km, 98.0° (Epoch: 7 June)

Event Time Altitude Azimuth Distance (km) Brightness Sun altitude
Rises 01:36:55 0° 358° (N) 2,471 7.7 -19.1°
Reaches altitude 10° 01:39:22 10° 339° (NNW) 1,611 6.3 -18.9°
Maximum altitude 01:41:47 18° 295° (WNW) 1,207 5.0 -18.7°
Enters shadow 01:42:20 18° 282° (WNW) 1,234 4.9 -18.7°
